Location: Melizzano
(41.1500°N, 14.5000°E)
Time: 18:21:23
(UTC+00:00)

Cosmos 1937 Rocket - Pass Details

Date: 11 May 2021
Orbit: 745 x 781 km, 74.0° (Epoch: 22 June)

Event Time Altitude Azimuth Distance (km) Brightness Sun altitude
Exits shadow 22:09:37 51° 300° (WNW) 944 4.1 -29.7°
Drops below altitude 10° 22:14:28 10° 10° (N) 2,282 6.7 -29.9°
Sets 22:16:56 0° 15° (NNE) 3,215 7.6 -30.0°
